Erzurum, Turkey

10:10 PM +03 on April 27, 2017 (GMT +0300)
Erzurum

Weather History for LTCE - April, 2014

Change the Weather History Date:

Friday, April 4, 2014

  Actual Average Record
Temperature  
Mean Temperature 32 °F -  
Max Temperature 46 °F 52 °F 62 °F (2013)
Min Temperature 18 °F 34 °F 10 °F (2004)
Degree Days  
Heating Degree Days 33    
Moisture  
Dew Point 15 °F    
Average Humidity 49    
Maximum Humidity 86    
Minimum Humidity 6    
Precipitation  
Precipitation 0.00 in 0.07 in - ()
Sea Level Pressure  
Sea Level Pressure 30.04 in    
Wind  
Wind Speed 7 mph ()    
Max Wind Speed 13 mph    
Max Gust Speed -    
Visibility 10.4 miles    
Events      
Averages and records for this station are not official NWS values.
T = Trace of Precipitation, MM = Missing Value Source: Averaged Metar Reports

Daily Weather History Graph

Daily Weather History Graph

Search for Another Location

Airport or City:

Trip Planner

Search our weather history database for the weather conditions in past years. The results will help you decide how hot, cold, wet, or windy it might be!

Date:

Astronomy

Apr. 04, 2014 Rise Set
Actual Time 5:55 AM EEST 6:42 PM EEST
Civil Twilight 5:27 AM EEST 7:09 PM EEST
Nautical Twilight 4:55 AM EEST 7:42 PM EEST
Astronomical Twilight 4:21 AM EEST 8:15 PM EEST
Moon 8:54 AM EEST (4/4) 11:34 PM EEST (4/4)
Length of Visible Light 13h 42m
Length of Day
12h 47m
Waxing Crescent, 23% of the Moon is Illuminated
Apr 4
Waxing Crescent
Apr 7
First Quarter
Apr 15
Full
Apr 22
Last Quarter
Apr 29
New

Hourly Weather History & Observations

Time (EEST) Temp. Windchill Dew Point Humidity Pressure Visibility Wind Dir Wind Speed Gust Speed Precip Events Conditions
12:00 AM 28 °F - 24 °F 78%  in 12 mi WSW 11.5 mph - -  
12:20 AM 30.2 °F 21.9 °F 23.0 °F 75% 29.98 in - WSW 9.2 mph - N/A   Clear
12:50 AM 30.2 °F 22.6 °F 23.0 °F 75% 29.98 in - WSW 8.1 mph - N/A   Clear
1:20 AM 26.6 °F 21.2 °F 23.0 °F 86% 29.98 in - WSW 4.6 mph - N/A   Clear
1:50 AM 26.6 °F 19.1 °F 21.2 °F 80% 29.98 in - WSW 6.9 mph - N/A   Clear
2:20 AM 24.8 °F 16.9 °F 19.4 °F 80% 29.98 in - WNW 6.9 mph - N/A   Clear
3:00 AM 25 °F - 22 °F 81%  in 12 mi NNW 2.3 mph - -  
3:20 AM 24.8 °F - 21.2 °F 86% 30.01 in - WNW 2.3 mph - N/A   Clear
3:50 AM 21.2 °F 14.9 °F 17.6 °F 86% 29.98 in - WSW 4.6 mph - N/A   Clear
4:20 AM 23.0 °F 15.8 °F 17.6 °F 80% 29.98 in - SW 5.8 mph - N/A   Clear
4:50 AM 21.2 °F - 17.6 °F 86% 30.01 in - Variable 2.3 mph - N/A   Clear
5:20 AM 21.2 °F 16.4 °F 17.6 °F 86% 30.01 in - SSW 3.5 mph - N/A   Clear
6:00 AM 19 °F - 17 °F 85%  in 12 mi West 4.6 mph - -  
6:50 AM 23.0 °F 14.7 °F 17.6 °F 80% 30.04 in - WSW 6.9 mph - N/A   Clear
7:20 AM 26.6 °F 20.0 °F 23.0 °F 86% 30.04 in - WSW 5.8 mph - N/A   Clear
7:50 AM 28.4 °F 20.4 °F 19.4 °F 69% 30.04 in - WSW 8.1 mph - N/A   Clear
8:20 AM 30.2 °F 23.4 °F 15.8 °F 55% 30.04 in - SW 6.9 mph - N/A   Clear
8:50 AM 32.0 °F 24.2 °F 14.0 °F 48% 30.06 in - WSW 9.2 mph - N/A   Clear
9:00 AM 31 °F - 11 °F 29%  in 12 mi WSW 9.2 mph - -  
9:20 AM 32.0 °F 23.6 °F 6.8 °F 35% 30.06 in - WSW 10.4 mph - N/A   Clear
9:50 AM 33.8 °F 26.4 °F -0.4 °F 23% 30.06 in - WSW 9.2 mph - N/A   Clear
10:20 AM 35.6 °F 28.6 °F 8.6 °F 33% 30.06 in - WSW 9.2 mph - N/A   Clear
10:50 AM 35.6 °F 28.6 °F 8.6 °F 33% 30.06 in - WSW 9.2 mph - N/A   Clear
11:20 AM 39.2 °F 33.6 °F 6.8 °F 26% 30.06 in - South 8.1 mph - N/A   Clear
11:50 AM 39.2 °F 33.0 °F 6.8 °F 26% 30.06 in - WSW 9.2 mph - N/A   Clear
12:00 PM 39 °F - -6 °F 6%  in 12 mi WSW 9.2 mph - -  
12:20 PM 41.0 °F 35.2 °F -0.4 °F 18% 30.04 in - SW 9.2 mph - N/A   Clear
12:50 PM 42.8 °F 38.0 °F 6.8 °F 23% 30.04 in - WSW 8.1 mph - N/A   Clear
1:20 PM 42.8 °F 37.5 °F 8.6 °F 25% 30.04 in - SW 9.2 mph - N/A   Clear
1:50 PM 44.6 °F 39.2 °F 8.6 °F 23% 30.04 in - SW 10.4 mph - N/A   Clear
2:20 PM 44.6 °F 40.2 °F 15.8 °F 31% 30.04 in 6.2 mi SW 8.1 mph - N/A   Unknown
2:50 PM 42.8 °F 36.6 °F 12.2 °F 29% 30.04 in 6.2 mi SW 11.5 mph - N/A   Unknown
3:00 PM 44 °F - 7 °F 10%  in 12 mi SW 11.5 mph - -  
3:20 PM 44.6 °F 39.7 °F 14.0 °F 29% 30.04 in - SW 9.2 mph - N/A   Clear
3:50 PM 46.4 °F 41.5 °F 15.8 °F 29% 30.04 in 6.2 mi SW 10.4 mph - N/A   Unknown
4:20 PM 46.4 °F 41.1 °F 12.2 °F 25% 30.04 in - SSW 11.5 mph - N/A   Clear
4:50 PM 46.4 °F 41.1 °F 14.0 °F 27% 30.04 in - SW 11.5 mph - N/A   Clear
5:20 PM 46.4 °F 41.1 °F 14.0 °F 27% 30.04 in - SW 11.5 mph - N/A   Clear
5:50 PM 44.6 °F 39.7 °F 17.6 °F 34% 30.04 in - SW 9.2 mph - N/A   Clear
6:00 PM 45 °F - 17 °F 19%  in 12 mi SW 9.2 mph - -  
6:20 PM 42.8 °F 36.2 °F 15.8 °F 34% 30.01 in - WSW 12.7 mph - N/A   Clear
6:50 PM 39.2 °F 32.5 °F 17.6 °F 42% 30.01 in - WSW 10.4 mph - N/A   Clear
7:20 PM 41.0 °F 34.3 °F 14.0 °F 33% 30.04 in - WSW 11.5 mph - N/A   Clear
7:50 PM 39.2 °F 34.2 °F 17.6 °F 42% 30.04 in - SSW 6.9 mph - N/A   Clear
8:20 PM 39.2 °F 35.0 °F 17.6 °F 42% 30.06 in - SW 5.8 mph - N/A   Clear
8:50 PM 35.6 °F 29.9 °F 19.4 °F 52% 30.06 in - SW 6.9 mph - N/A   Clear
9:00 PM 35 °F - 18 °F 36%  in 12 mi SW 5.8 mph - -  
9:20 PM 35.6 °F 31.7 °F 19.4 °F 52% 30.06 in - SSW 4.6 mph - N/A   Clear
9:50 PM 35.6 °F 28.6 °F 19.4 °F 52% 30.09 in - West 9.2 mph - N/A   Clear
10:20 PM 35.6 °F 28.0 °F 19.4 °F 52% 30.09 in - West 10.4 mph - N/A   Clear
10:50 PM 33.8 °F 26.4 °F 19.4 °F 56% 30.09 in - WSW 9.2 mph - N/A   Clear
11:20 PM 32.0 °F 28.7 °F 21.2 °F 64% 30.09 in - West 3.5 mph - N/A   Clear
11:50 PM 32.0 °F 26.4 °F 21.2 °F 64% 30.09 in - SSW 5.8 mph - N/A   Clear